Amsterdam, Netherlands

7:35 PM CEST on October 20, 2019 (GMT +0200)
Schiphol

Weather History for EHAM - August, 2019

Change the Weather History Date:

Friday, August 2, 2019

  Actual Average Record
Temperature  
Mean Temperature 65 °F -  
Max Temperature 69 °F 69 °F 90 °F (2013)
Min Temperature 61 °F 55 °F 50 °F (1998)
Growing Degree Days 15 (Base 50)    
Moisture  
Dew Point 61 °F    
Average Humidity 84    
Maximum Humidity 94    
Minimum Humidity 65    
Precipitation  
Precipitation 0.12 in - - ()
Sea Level Pressure  
Sea Level Pressure 29.95 in    
Wind  
Wind Speed 10 mph ()    
Max Wind Speed 17 mph    
Max Gust Speed -    
Visibility 7.8 miles    
Events Rain    
Averages and records for this station are not official NWS values.
T = Trace of Precipitation, MM = Missing Value Source: Averaged Metar Reports

Daily Weather History Graph

Daily Weather History Graph

Search for Another Location

Airport or City:

Astronomy

Aug. 02, 2019 Rise Set
Actual Time 6:02 AM CEST 9:30 PM CEST
Civil Twilight 5:20 AM CEST 10:12 PM CEST
Nautical Twilight 4:24 AM CEST 11:08 PM CEST
Astronomical Twilight 3:01 AM CEST 12:28 AM CEST
Moon 7:25 AM CEST (8/2) 10:38 PM CEST (8/2)
Length of Visible Light 16h 51m
Length of Day
15h 28m
Waxing Crescent, 3% of the Moon is Illuminated
Aug 2
Waxing Crescent
Aug 7
First Quarter
Aug 15
Full
Aug 23
Last Quarter
Aug 30
New

Hourly Weather History & Observations

Time (CEST) Temp. Dew Point Humidity Pressure Visibility Wind Dir Wind Speed Gust Speed Precip Events Conditions
12:25 AM 62.6 °F 59.0 °F 88% 30.01 in 6.2 mi SW 9.2 mph - N/A   Partly Cloudy
12:55 AM 62.6 °F 59.0 °F 88% 29.98 in 6.2 mi WSW 9.2 mph - N/A   Partly Cloudy
1:00 AM 63 °F 59 °F 82% 30.00 in 10 mi WSW 8.9 mph - -   Partly Cloudy
1:25 AM 62.6 °F 59.0 °F 88% 29.98 in 6.2 mi SW 8.1 mph - N/A   Mostly Cloudy
1:55 AM 64.4 °F 59.0 °F 83% 29.98 in 6.2 mi WSW 11.5 mph - N/A   Mostly Cloudy
2:00 AM 64 °F 60 °F 81% 29.98 in 10 mi WSW 11.2 mph - -   Partly Cloudy
2:25 AM 64.4 °F 59.0 °F 83% 29.98 in 6.2 mi West 9.2 mph - N/A   Scattered Clouds
2:55 AM 64.4 °F 59.0 °F 83% 29.98 in 6.2 mi WSW 10.4 mph - N/A   Scattered Clouds
3:00 AM 64 °F 59 °F 79% 29.98 in 14 mi WSW 11.2 mph - -   Partly Cloudy
3:25 AM 62.6 °F 59.0 °F 88% 29.98 in 6.2 mi WSW 10.4 mph - N/A   Scattered Clouds
3:55 AM 64.4 °F 59.0 °F 83% 29.95 in 6.2 mi WSW 10.4 mph - N/A   Mostly Cloudy
4:00 AM 64 °F 59 °F 79% 29.97 in 12 mi WSW 11.2 mph - -   Partly Cloudy
4:25 AM 64.4 °F 59.0 °F 83% 29.95 in 6.2 mi WSW 10.4 mph - N/A Rain Light Rain Showers
4:55 AM 62.6 °F 59.0 °F 88% 29.95 in 6.2 mi WSW 10.4 mph - N/A Rain Light Rain Showers
5:25 AM 62.6 °F 60.8 °F 94% 29.95 in 6.2 mi SW 10.4 mph - N/A Rain Light Rain Showers
5:55 AM 62.6 °F 60.8 °F 94% 29.95 in 6.2 mi WSW 10.4 mph - N/A   Mostly Cloudy
6:00 AM 64 °F 60 °F 84% 29.95 in 8 mi WSW 11.2 mph - - Rain Rain
6:25 AM 62.6 °F 60.8 °F 94% 29.92 in 6.2 mi SW 9.2 mph - N/A   Mostly Cloudy
6:55 AM 64.4 °F 60.8 °F 88% 29.92 in 6.2 mi SW 9.2 mph - N/A Rain Light Rain Showers
7:00 AM 64 °F 61 °F 87% 29.94 in 7 mi WSW 8.9 mph - -   Partly Cloudy
7:25 AM 64.4 °F 60.8 °F 88% 29.92 in 5.0 mi WSW 11.5 mph - N/A Rain Light Rain Showers
7:55 AM 64.4 °F 62.6 °F 94% 29.92 in 6.2 mi WSW 11.5 mph - N/A   Scattered Clouds
8:00 AM 64 °F 62 °F 90% 29.93 in 9 mi WSW 11.2 mph - - Rain Rain
8:25 AM 64.4 °F 60.8 °F 88% 29.92 in 5.0 mi WSW 12.7 mph - N/A Rain Light Rain Showers
8:55 AM 64.4 °F 62.6 °F 94% 29.92 in 6.2 mi WSW 10.4 mph - N/A   Mostly Cloudy
9:00 AM 65 °F 62 °F 86% 29.92 in 11 mi WSW 11.2 mph - - Rain Rain
9:25 AM 64.4 °F 62.6 °F 94% 29.92 in 1.9 mi WSW 11.5 mph - N/A Rain Rain Showers
9:55 AM 64.4 °F 62.6 °F 94% 29.89 in 6.2 mi WSW 12.7 mph - N/A   Scattered Clouds
10:00 AM 65 °F 63 °F 89% 29.91 in 9 mi West 13.4 mph - - Rain Light Rain Showers
10:25 AM 66.2 °F 62.6 °F 88% 29.89 in 2.5 mi WSW 13.8 mph - N/A Rain Rain Showers
10:55 AM 66.2 °F 62.6 °F 88% 29.89 in 6.2 mi West 13.8 mph - N/A   Scattered Clouds
11:00 AM 66 °F 62 °F 82% 29.90 in 17 mi West 13.4 mph - - Rain Rain
11:25 AM 68.0 °F 62.6 °F 83% 29.89 in 6.2 mi West 11.5 mph - N/A   Partly Cloudy
11:55 AM 68.0 °F 64.4 °F 88% 29.89 in 6.2 mi NW 8.1 mph - N/A   Scattered Clouds
12:00 PM 67 °F 63 °F 83% 29.89 in 7 mi NW 11.2 mph - - Rain Light Rain Showers
12:25 PM 68.0 °F 64.4 °F 88% 29.89 in 6.2 mi WNW 12.7 mph - N/A   Scattered Clouds
12:55 PM 68.0 °F 62.6 °F 83% 29.89 in 6.2 mi NW 17.3 mph - N/A Rain Light Rain Showers
1:25 PM 66.2 °F 62.6 °F 88% 29.89 in 6.2 mi NNW 16.1 mph - N/A Rain Light Rain Showers
1:55 PM 69.8 °F 64.4 °F 83% 29.92 in 6.2 mi North 15.0 mph - N/A   Mostly Cloudy
2:00 PM 69 °F 64 °F 77% 29.92 in 19 mi North 15.7 mph - - Rain Rain
2:25 PM 66.2 °F 62.6 °F 88% 29.92 in 6.2 mi North 16.1 mph - N/A   Mostly Cloudy
2:55 PM 68.0 °F 62.6 °F 83% 29.92 in 6.2 mi North 17.3 mph - N/A   Scattered Clouds
3:00 PM 68 °F 62 °F 76% 29.95 in 19 mi North 15.7 mph - - Rain Rain
3:25 PM 68.0 °F 62.6 °F 83% 29.95 in 6.2 mi North 13.8 mph - N/A   Scattered Clouds
3:55 PM 66.2 °F 62.6 °F 88% 29.95 in 5.6 mi North 10.4 mph - N/A Rain Light Rain Showers
4:00 PM 67 °F 62 °F 81% 29.97 in 11 mi North 11.2 mph - - Rain Light Rain Showers
4:25 PM 68.0 °F 62.6 °F 83% 29.95 in 6.2 mi North 10.4 mph - N/A   Scattered Clouds
4:55 PM 68.0 °F 62.6 °F 83% 29.95 in 6.2 mi North 10.4 mph - N/A Rain Light Rain Showers
5:25 PM 68.0 °F 60.8 °F 78% 29.98 in 5.0 mi North 9.2 mph - N/A Rain Light Rain Showers
5:55 PM 68.0 °F 62.6 °F 83% 29.98 in 6.2 mi NNE 11.5 mph - N/A   Partly Cloudy
6:00 PM 68 °F 61 °F 73% 29.98 in 17 mi North 13.4 mph - - Rain Rain
6:25 PM 68.0 °F 60.8 °F 78% 29.98 in 5.0 mi North 10.4 mph - N/A Rain Rain Showers
6:55 PM 68.0 °F 60.8 °F 78% 29.98 in 6.2 mi North 8.1 mph - N/A   Partly Cloudy
7:00 PM 69 °F 60 °F 65% 29.98 in 16 mi North 8.9 mph - -   Partly Cloudy
7:25 PM 69.8 °F 59.0 °F 68% 29.98 in 6.2 mi North 15.0 mph - N/A   Partly Cloudy
7:55 PM 68.0 °F 59.0 °F 73% 29.98 in 6.2 mi North 13.8 mph - N/A   Partly Cloudy
8:25 PM 68.0 °F 60.8 °F 78% 29.98 in 6.2 mi North 12.7 mph - N/A   Partly Cloudy
8:55 PM 68.0 °F 60.8 °F 78% 30.01 in 6.2 mi North 10.4 mph - N/A Rain Light Rain Showers
9:00 PM 67 °F 61 °F 75% 30.01 in 16 mi North 11.2 mph - -   Partly Cloudy
9:25 PM 66.2 °F 60.8 °F 83% 30.01 in 6.2 mi North 12.7 mph - N/A   Partly Cloudy
9:55 PM 66.2 °F 59.0 °F 78% 30.01 in 6.2 mi North 13.8 mph - N/A   Partly Cloudy
10:00 PM 65 °F 60 °F 77% 30.03 in 19 mi North 13.4 mph - -   Partly Cloudy
10:25 PM 64.4 °F 59.0 °F 83% 30.01 in 6.2 mi North 10.4 mph - N/A   Partly Cloudy
10:55 PM 64.4 °F 60.8 °F 88% 30.04 in 6.2 mi NNW 6.9 mph - N/A   Partly Cloudy
11:25 PM 64.4 °F 60.8 °F 88% 30.04 in 6.2 mi North 8.1 mph - N/A   Partly Cloudy
11:55 PM 64.4 °F 60.8 °F 88% 30.04 in 6.2 mi North 9.2 mph - N/A   Scattered Clouds